Domov               UVHVVR             MKGP            O straneh              
ZDRAVSTVENO VARSTVO RASTLIN
  MREŽA AGROMET. POSTAJ
 ► PROGNOSTIČNA OBVESTILA
AGROMETEOROLOŠKI PODATKI -
ARSO
OBVLADOVANJE TVEGANJ ZARADI
NEUGODNIH VREMENSKIH RAZMER
  ► NARAVNE NESREČE
  ► SUŠA/MOČA
  ► NAMAKANJE
  ► ŽLED (gozdarstvo)
KARTOGRAFSKI PRIKAZI
SPLETNE POVEZAVE
PROJEKTI IN PUBLIKACIJE

AGROMETEOROLOŠKA MREŽA: VREMENSKE POSTAJE IN FENOLOŠKA OPAZOVANJA

Pregled podatkov za lokacijo Pradisiol, meteorološka postaja 861649

Pregled senzorjev na lokaciji

ID Ime Zadnja
vrednost
Datum
zadnje
spremembe
Tip
senzorja
4074 Temperatura 2 m (°C) 16,01 °C 12.12.2017 01:00 50YA
4075 Relativna vlaga 2 m (% RH) 68,68 % RH 12.12.2017 01:00 50YA
4076 Omočenost lista (U) 0 U 12.12.2017 01:00 A730WET
4077 Padavine (mm) 0 mm 12.12.2017 01:00 Rain-O-Matic

Pregled podatkov zadnjih 24 ur

Zap.
št.
Datum in čas Pradisiol
Omočenost
lista
Padavine Relativna
vlaga
2
m
Temperatura
2
m
0 12.12.2017 01:00 0 0 68,68 16,01
1 12.12.2017 00:30 0 0 68,88 16
2 12.12.2017 00:00 0 0 68,07 16,15
3 11.12.2017 23:30 0 0 71,13 15,79
4 11.12.2017 23:00 0 0 68,35 16,17
5 11.12.2017 22:30 0 0 67,09 16,29
6 11.12.2017 22:00 0 0 69,53 16
7 11.12.2017 21:30 0 0 65,86 16,41
8 11.12.2017 21:00 0 0 66,94 16,27
9 11.12.2017 20:30 0 0 70,55 15,83
10 11.12.2017 20:00 0 0 71,28 15,78
11 11.12.2017 19:30 0 0 70,78 15,84
12 11.12.2017 19:00 1 0 69,15 16
13 11.12.2017 18:30 0 0 67,65 16,13
14 11.12.2017 18:00 1 0 68,01 16,06
15 11.12.2017 17:30 0 0 64,96 16,35
16 11.12.2017 17:00 0 0 62,56 16,57
17 11.12.2017 16:30 0 0 66,67 15,98
18 11.12.2017 16:00 0 0 62,56 16,34
19 11.12.2017 15:30 0 0 64,24 16,12
20 11.12.2017 15:00 0 0 61,87 16,38
21 11.12.2017 14:30 2 0 65,58 15,96
22 11.12.2017 14:00 10 0 70,5 15,53
23 11.12.2017 13:30 10 0 72,61 15,34
24 11.12.2017 13:00 10 0 74,09 15,2
25 11.12.2017 12:30 10 0 76,7 14,95
26 11.12.2017 12:00 6 0 77,49 14,75
27 11.12.2017 11:30 8 0,4 80,7 14,24
28 11.12.2017 11:00 7 0,4 79,39 14,42
29 11.12.2017 10:30 8 0,4 80,23 14,16
30 11.12.2017 10:00 7 0,6 80,91 13,95
31 11.12.2017 09:30 9 0,2 79,75 14,05
32 11.12.2017 09:00 9 0 79,2 14,07
33 11.12.2017 08:30 10 0,2 80,99 13,88
34 11.12.2017 08:00 10 0,6 85,28 13,32
35 11.12.2017 07:30 9 1,4 85,24 13,04
36 11.12.2017 07:00 9 1,6 86,54 12,68
37 11.12.2017 06:30 6 1 84,32 12,85
38 11.12.2017 06:00 8 1 84,21 12,85
39 11.12.2017 05:30 4 0,2 82,16 13,12
40 11.12.2017 05:00 9 1,4 93,04 11,88
41 11.12.2017 04:30 5 2,2 99,25 8,3
42 11.12.2017 04:00 3 3 98,74 7,69
43 11.12.2017 03:30 3 5 98,27 7,84
44 11.12.2017 03:00 3 3,6 97,21 8,4
45 11.12.2017 02:30 4 4,4 95,97 9,58
46 11.12.2017 02:00 7 2,4 93,97 10,06
© 2011 Ministrstvo za kmetijstvo, gozdarstvo in prehrano. Vse pravice pridržane.